Location: Brunembert
(50.7122°N, 1.8935°E)
Time: 03:24:52
(UTC+00:00)

Cosmos 1190 Rocket - Pass Details

Date: 22 April 2021
Orbit: 757 x 779 km, 74.1° (Epoch: 06 May)

Event Time Altitude Azimuth Distance (km) Brightness Sun altitude
Rises 20:57:41 0° 208° (SSW) 3,224 7.1 -16.4°
Reaches altitude 10° 21:00:03 10° 210° (SSW) 2,299 6.3 -16.7°
Maximum altitude 21:05:16 74° 296° (WNW) 797 4.2 -17.2°
Drops below altitude 10° 21:10:30 10° 22° (NNE) 2,303 6.8 -17.8°
Sets 21:12:53 0° 24° (NNE) 3,231 7.6 -18.0°
